Regional Weather Roundup
Issued by NWS Midland/Odessa, TX

Home | Current Version | Previous Version | Text Only | Print | Product List | Glossary On
Versions: 1 2 3 4 5 6 7 8 9 10 11 12 13 14 15 16 17 18 19 20 21 22 23 24 25 26 27 28 29 30 31 32 33 34 35 36 37 38 39 40 41 42 43 44 45 46 47 48 49 50
000
ASUS44 KMAF 260910
RWRMAF
MIDLAND AREA WEATHER ROUNDUP
NATIONAL WEATHER SERVICE MIDLAND TX
300 AM CST FRI DEC 26 2014

...IN SOUTHWEST TEXAS AND SOUTHEAST NEW MEXICO...

CITY           SKY/WX    TMP DP  RH WIND       PRES   REMARKS
ALPINE         CLEAR     53  17  23 SW13G18   29.88S
ANDREWS        FAIR      46  30  54 S13G18    29.78R WCI  40
ARTESIA        CLEAR     36  25  64 SE13      29.72S WCI  27
BIG SPRING     MOCLDY    49  35  56 S17       29.82S
CARLSBAD       CLEAR     32  25  75 CALM      29.73R
DRYDEN           N/A     44  32  62 NE8       29.84R WCI  39
FORT STOCKTON  PTCLDY    45  30  55 S20       29.78S WCI  37
GUAD PASS      NOT AVBL
HOBBS          CLEAR     39  27  60 S10       29.77S WCI  32
MARFA          CLEAR     28  12  50 SE6       29.86S WCI  22
MIDLAND AIRPK  MOCLDY    50  32  50 S16       29.78S
MIDLAND INTL   MOCLDY    48  32  53 S14       29.78R
ODESSA         MOCLDY    47  30  51 S12       29.78R
PECOS          CLEAR     36  27  67 NE5       29.75S WCI  32
PRESIDIO       FAIR      49  22  34 E6        29.80F
SEMINOLE       PTCLDY    39  29  68 S7        29.78S WCI  34
SNYDER         MOCLDY    45  34  64 S9        29.81S
WINK           PTCLDY    46  28  49 SE13      29.76R
$$
...OTHER STATIONS IN TEXAS...

CITY           SKY/WX    TMP DP  RH WIND       PRES   REMARKS
ABILENE        CLEAR     49  37  63 S23G30    29.81S
AMARILLO       CLEAR     38  24  57 S14       29.74R WCI  30
AUSTIN         MOCLDY    54  50  86 S9        29.96F
BROWNSVILLE    CLOUDY    65  63  93 S14       29.95F
CORPUS CHRISTI CLOUDY    65  58  78 S13       29.95S
DALLAS FTW     CLOUDY    53  45  74 S12       29.94S
DEL RIO        CLOUDY    52  43  71 E12       29.89S
EL PASO        PTCLDY    50  23  34 SW13      29.76R
HOUSTON INT    CLOUDY    59  53  80 CALM      30.03S
LUBBOCK        PTCLDY    42  28  57 S10       29.77R WCI  36
SAN ANGELO     MOCLDY    52  40  63 S13       29.83R
SAN ANTONIO    CLOUDY    55  48  77 CALM      29.96F
WACO           CLOUDY    52  47  83 SE10      29.94F
WICHITA FALLS  NOT AVBL
$$
...OTHER LOCATIONS IN NEW MEXICO...

CITY           SKY/WX    TMP DP  RH WIND       PRES   REMARKS
ALAMAGORDO     MOCLDY    50  23  34 S14       29.75R
ALBUQUERQUE    LGT SNOW  32  31  96 S12       29.75R FOG     WCI  23
CANNON AFB     CLEAR     32  21  64 S3        29.72R
CLOVIS         CLEAR     25  18  74 SW3       29.72R
HOLLOMAN AFB   MOCLDY    47  23  38 W8        29.74R
ROSWELL        CLEAR     35  20  54 CALM      29.70R
RUIDOSO        MOCLDY    39  23  52 SW20G32   29.75R WCI  30
SANTA FE       LGT SNOW  29  27  92 SE7       29.71R FOG     WCI  22
TRUTH OR CONSE CLOUDY    41  30  65 SW5       29.73R WCI  38
TUCUMCARI      CLEAR     39  18  42 W8        29.69R WCI  33
$$


USA.gov is the U.S. government's official web portal to all federal, state and local government web resources and services.